Regional Weather Roundup
Issued by NWS

Home | Current Version | Previous Version | Text Only | Print | Product List | Glossary On
Versions: 1 2 3 4 5 6 7 8 9 10 11 12 13 14 15 16 17 18 19 20 21 22 23 24 25 26 27 28 29 30 31 32 33 34 35 36 37 38 39 40 41 42 43 44 45 46 47 48 49 50
000
ASUS45 KCYS 041910
RWRWY

WYOMING REGIONAL WEATHER ROUNDUP
NATIONAL WEATHER SERVICE CHEYENNE WY
100 PM MDT WED MAY 04 2016

NOTE:  "FAIR" INDICATES FEW OR NO CLOUDS BELOW 12,000 FEET
WITH NO SIGNIFICANT WEATHER AND/OR OBSTRUCTIONS TO VISIBILITY.

WYZ001-042000-
YELLOWSTONE NATIONAL PARK

CITY           SKY/WX    TMP DP  RH WIND       PRES   REMARKS
LK YELLOWSTONE   N/A     59  22  24 VRB5      30.29F
W YELLOWSTONE  NOT AVBL

$$
WYZ002>013-054>058-071-098>099-042000-
NORTHERN WYOMING

CITY           SKY/WX    TMP DP  RH WIND       PRES   REMARKS
JACKSON        SUNNY     64  27  24 E5        30.22F
CODY           FAIR      75  27  16 S6        30.09F
GREYBULL       FAIR      78  25  14 SE5       30.05F
WORLAND        FAIR      75  32  20 VRB3      30.08F
SHERIDAN       FAIR      79  36  21 E8        30.05F
BUFFALO        FAIR      74  31  20 CALM      30.11F
GILLETTE       FAIR      74  33  22 W3        30.09F
HULETT         FAIR      73  36  25 SW9G17    30.12F
NEWCASTLE      FAIR      72  32  23 S5G13     30.15F

$$
WYZ014>020-022>026-101>103-042000-
CENTRAL WYOMING

CITY           SKY/WX    TMP DP  RH WIND       PRES   REMARKS
BIG PINEY      FAIR      68  22  17 S10G21    30.25F
PINEDALE       FAIR      64  21  19 SW12      30.26F
DUBOIS         FAIR      66  14  13 W16G22    30.22F
LANDER         FAIR      69  36  29 MISG      30.15F
RIVERTON       FAIR      68  40  35 CALM      30.17F
CASPER         FAIR      74  34  23 SW9G24    30.15F
DOUGLAS        FAIR      71  36  27 SE6       30.17F

$$
WYZ021-027>030-104>119-042000-
SOUTHERN WYOMING

CITY           SKY/WX    TMP DP  RH WIND       PRES   REMARKS
EVANSTON       FAIR      67  25  20 S12G32    30.24F
KEMMERER         N/A     66  19  16 S5        30.26F
FORT BRIDGER   FAIR      67  22  18 CALM      30.27F
ROCK SPRINGS   FAIR      67  24  19 VRB7      30.24F
DIXON          FAIR      69  28  21 SW10      30.28F
RAWLINS        FAIR      69  19  15 W12G18    30.26F
SARATOGA       FAIR      66  27  22 SE5       30.27F
LARAMIE        FAIR      63  24  22 NW9       30.28F
CHEYENNE       FAIR      70  28  21 VRB6      30.23F
TORRINGTON     FAIR      72  40  31 MISG      30.15F
PINE BLUFFS    FAIR      68  34  28 CALM      30.21F

$$



USA.gov is the U.S. government's official web portal to all federal, state and local government web resources and services.